EW0754 Weather Reports


time (UTC)temp
C
wind
direction
speed
KPH
gust
KPH
rain 1hr
cm
rain 24hr
cm
rain mn
cm
humidity
%
barometer
mb
20260507120904 3 46 0.0 0.0 0.00 0.48 0.00 92 1012.8
20260507120404 3 45 0.0 0.0 0.00 0.48 0.00 92 1013.0
20260507115904 3 46 0.0 0.0 0.00 0.51 0.00 92 1013.0
20260507115404 3 46 0.0 0.0 0.00 0.51 0.00 92 1012.9
20260507114904 3 46 0.0 0.0 0.00 0.51 0.00 92 1012.9
20260507114404 3 46 0.0 0.0 0.00 0.51 0.00 92 1012.9
20260507113904 3 46 0.0 1.6 0.00 0.51 0.00 92 1012.9
20260507113404 3 63 0.0 1.6 0.00 0.51 0.00 92 1012.8
20260507112904 3 63 0.0 1.6 0.00 0.53 0.00 92 1012.7
20260507112404 3 95 0.0 3.2 0.00 0.53 0.00 92 1012.7
20260507111905 3 88 0.0 1.6 0.00 0.53 0.00 92 1012.6
20260507111404 3 88 0.0 1.6 0.00 0.53 0.00 92 1012.6
20260507110903 3 92 0.0 0.0 0.00 0.53 0.00 92 1012.5
20260507110404 3 92 0.0 0.0 0.00 0.53 0.00 92 1012.3
20260507105404 2 92 0.0 0.0 0.00 0.56 0.00 92 1012.2
20260507104903 2 92 0.0 0.0 0.00 0.56 0.00 92 1012.2
20260507103903 3 92 0.0 0.0 0.00 0.56 0.00 92 1012.1
20260507103403 3 92 0.0 0.0 0.00 0.56 0.00 92 1011.8
20260507102903 3 92 0.0 0.0 0.00 0.56 0.00 92 1011.8
20260507102403 3 92 0.0 0.0 0.00 0.58 0.00 92 1011.9
20260507101903 3 92 0.0 1.6 0.00 0.58 0.00 92 1011.8
20260507100903 3 92 0.0 0.0 0.00 0.61 0.00 92 1012.0
20260507100403 3 92 0.0 0.0 0.00 0.61 0.00 92 1012.1
20260507095903 3 92 0.0 0.0 0.00 0.61 0.00 92 1012.1
20260507095403 3 92 0.0 0.0 0.00 0.64 0.00 92 1012.1
20260507094903 4 92 0.0 0.0 0.00 0.64 0.00 92 1012.1
20260507094403 4 92 0.0 0.0 0.00 0.64 0.00 92 1012.0
20260507093903 4 92 0.0 0.0 0.00 0.66 0.00 92 1011.8
20260507093403 4 92 0.0 0.0 0.00 0.66 0.00 92 1012.1
20260507092904 4 92 0.0 0.0 0.00 0.66 0.00 92 1012.1
20260507091903 4 92 0.0 0.0 0.00 0.69 0.00 92 1011.9
20260507091403 4 92 0.0 0.0 0.00 0.69 0.00 92 1011.8
20260507090903 4 92 0.0 0.0 0.00 0.71 0.00 92 1011.8
20260507090403 4 92 0.0 0.0 0.00 0.74 0.00 92 1012.0
20260507085904 4 92 0.0 0.0 0.00 0.74 0.00 92 1012.0
20260507085404 4 92 0.0 0.0 0.00 0.74 0.00 92 1012.0
20260507084904 4 92 0.0 0.0 0.00 0.76 0.00 92 1011.9
20260507084404 4 92 0.0 0.0 0.00 0.76 0.00 92 1012.0
20260507083903 4 92 0.0 0.0 0.00 0.79 0.00 92 1012.0
20260507083403 4 92 0.0 0.0 0.00 0.81 0.00 92 1011.9
20260507082904 4 92 0.0 0.0 0.00 0.81 0.00 92 1012.0
20260507082404 3 107 0.0 0.0 0.00 0.81 0.00 92 1012.1
20260507081904 3 107 0.0 0.0 0.00 0.84 0.00 92 1012.1
20260507081404 3 107 0.0 0.0 0.00 0.86 0.00 92 1012.0
20260507080903 3 107 0.0 0.0 0.00 0.86 0.00 92 1012.1
20260507080403 3 107 0.0 0.0 0.00 0.86 0.00 92 1012.0
20260507075404 3 107 0.0 0.0 0.00 0.91 0.00 92 1011.9
20260507074904 3 107 0.0 0.0 0.00 0.91 0.00 92 1011.8
20260507074404 3 107 0.0 0.0 0.00 0.94 0.00 92 1011.8
20260507073404 3 164 0.0 1.6 0.00 0.94 0.00 92 1011.5
20260507072903 3 205 0.0 0.0 0.00 0.97 0.00 92 1011.7
20260507072403 3 205 0.0 0.0 0.00 0.97 0.00 91 1011.7
20260507071903 3 205 0.0 0.0 0.00 0.99 0.00 91 1011.8
20260507070903 3 200 0.0 0.0 0.00 1.02 0.00 92 1011.8
20260507070403 3 200 0.0 0.0 0.00 1.02 0.00 91 1011.7
20260507065903 3 200 0.0 0.0 0.00 1.04 0.00 91 1011.8
20260507065403 3 200 0.0 0.0 0.00 1.07 0.00 91 1011.9
20260507064903 3 200 0.0 0.0 0.00 1.07 0.00 91 1012.0
20260507063904 4 200 0.0 0.0 0.00 1.09 0.00 91 1012.0
20260507063404 4 200 0.0 0.0 0.00 1.12 0.00 92 1012.1
20260507062904 4 200 0.0 0.0 0.00 1.12 0.00 92 1012.1
20260507062404 4 200 0.0 0.0 0.00 1.12 0.00 92 1012.2
20260507061903 4 200 0.0 0.0 0.00 1.14 0.00 91 1012.1
20260507061404 5 200 0.0 0.0 0.00 1.14 0.00 91 1012.2
20260507060903 5 200 0.0 0.0 0.00 1.14 0.00 92 1012.2
20260507060403 5 200 0.0 0.0 0.00 1.14 0.00 92 1012.1
20260507055904 5 200 0.0 1.6 0.00 1.17 0.00 92 1012.1
20260507055403 5 209 0.0 1.6 0.00 1.17 0.00 92 1012.1
20260507054904 5 213 0.0 0.0 0.00 1.19 0.00 92 1012.3
20260507054404 5 213 0.0 0.0 0.00 1.19 0.00 92 1012.2
20260507053904 5 213 0.0 1.6 0.00 1.22 0.00 92 1012.3
20260507053404 5 213 0.0 0.0 0.00 1.22 0.00 92 1012.3
20260507052403 5 213 0.0 0.0 0.00 1.27 0.00 92 1012.3
20260507051903 5 213 0.0 0.0 0.00 1.27 0.00 92 1012.4
20260507051404 5 213 0.0 1.6 0.00 1.30 0.00 91 1012.5
20260507050403 5 310 0.0 0.0 0.00 1.35 0.00 91 1012.5
20260507045903 5 310 0.0 0.0 0.00 1.37 0.00 91 1012.5
20260507045403 5 310 0.0 0.0 0.00 1.40 0.00 91 1012.6
20260507044904 5 310 0.0 0.0 0.00 1.42 0.00 91 1012.7
20260507043903 5 310 0.0 0.0 0.00 1.45 0.00 91 1012.6
20260507042903 5 310 0.0 0.0 0.00 1.47 0.00 91 1012.7
20260507041403 5 310 0.0 0.0 0.00 1.47 0.00 91 1012.7
20260507040904 5 310 0.0 0.0 0.00 1.47 0.00 91 1012.6
20260507040403 5 310 0.0 0.0 0.00 1.47 0.00 91 1012.5
20260507035904 5 310 0.0 0.0 0.00 1.47 1.47 91 1012.5
20260507035403 5 310 0.0 0.0 0.00 1.47 1.47 91 1012.4
20260507034903 5 309 0.0 1.6 0.00 1.47 1.47 91 1012.6
20260507034404 5 258 0.0 0.0 0.00 1.47 1.47 91 1012.5
20260507033904 5 258 0.0 0.0 0.00 1.50 1.47 91 1012.5
20260507033404 5 258 0.0 0.0 0.00 1.50 1.47 91 1012.4
20260507032904 5 258 0.0 0.0 0.00 1.50 1.47 91 1012.4
20260507032403 5 259 0.0 0.0 0.00 1.52 1.47 91 1012.5
20260507031903 5 257 0.0 0.0 0.00 1.52 1.47 91 1012.6
20260507031403 5 257 0.0 0.0 0.00 1.55 1.47 91 1012.6
20260507030904 5 258 0.0 0.0 0.00 1.55 1.47 91 1012.6
20260507030404 5 260 0.0 1.6 0.00 1.57 1.47 91 1012.5
20260507025903 5 255 0.0 1.6 0.00 1.57 1.47 91 1012.4
20260507024904 5 249 0.0 1.6 0.00 1.60 1.47 91 1012.4
20260507024404 5 264 0.0 1.6 0.00 1.63 1.47 91 1012.4
20260507023904 5 265 1.6 4.8 0.00 1.63 1.47 91 1012.3
20260507023404 5 282 1.6 4.8 0.00 1.63 1.47 91 1012.3
20260507022903 5 271 1.6 4.8 0.00 1.65 1.47 91 1012.4
20260507022403 5 275 1.6 4.8 0.00 1.65 1.47 91 1012.4
20260507021904 5 268 1.6 4.8 0.00 1.65 1.47 91 1012.4
20260507020904 5 285 1.6 4.8 0.00 1.68 1.47 91 1012.6
20260507014903 5 270 1.6 3.2 0.00 1.68 1.47 91 1012.6
20260507014403 5 275 0.0 1.6 0.00 1.68 1.47 91 1012.6
20260507013904 5 278 0.0 1.6 0.00 1.68 1.47 91 1012.7
20260507013404 5 254 0.0 1.6 0.00 1.70 1.47 91 1012.5
20260507012404 5 257 0.0 1.6 0.00 1.70 1.47 91 1012.3
20260507011903 5 257 0.0 0.0 0.00 1.70 1.47 91 1012.4
20260507011403 5 256 0.0 1.6 0.00 1.70 1.47 91 1012.3
20260507010903 5 239 0.0 0.0 0.00 1.70 1.47 91 1012.1
20260507005904 5 240 0.0 1.6 0.00 1.73 1.47 91 1012.2
20260507005404 5 224 0.0 1.6 0.00 1.73 1.47 91 1012.1
20260507004904 5 290 0.0 1.6 0.00 1.75 1.47 91 1012.1
20260507004403 5 291 0.0 0.0 0.00 1.78 1.47 91 1012.1
20260507003903 5 291 0.0 0.0 0.00 1.80 1.47 90 1011.9
20260507003403 5 291 0.0 0.0 0.00 1.83 1.47 90 1011.9
20260507002904 5 291 0.0 0.0 0.00 1.88 1.47 90 1011.7
20260507002403 5 291 0.0 0.0 0.00 1.91 1.47 90 1011.8
20260507001904 5 291 0.0 0.0 0.00 1.91 1.47 90 1011.8
20260507001404 5 291 0.0 0.0 0.00 1.93 1.47 90 1011.8
20260507000405 5 288 1.6 3.2 0.00 1.98 1.47 90 1011.8
20260506235904 5 293 1.6 3.2 0.00 2.01 1.47 90 1011.7
20260506235404 5 342 0.0 4.8 0.00 2.03 1.47 90 1011.7
20260506234904 5 343 1.6 4.8 0.00 2.06 1.47 90 1011.7
20260506234404 5 16 3.2 9.7 0.00 2.06 1.47 90 1011.7
20260506233904 5 352 1.6 4.8 0.00 2.06 1.47 90 1011.7
20260506233404 5 6 1.6 4.8 0.00 2.08 1.47 91 1011.7
20260506232903 5 339 4.8 9.7 0.00 2.08 1.47 90 1011.6
20260506232404 5 20 3.2 12.9 0.00 2.11 1.47 90 1011.5
20260506231903 5 8 6.4 11.3 0.00 2.13 1.47 91 1011.4
20260506231404 5 21 1.6 3.2 0.00 2.13 1.47 91 1011.2
20260506230904 5 99 1.6 8.0 0.00 2.16 1.47 90 1011.2
20260506230404 5 358 3.2 9.7 0.00 2.18 1.47 91 1011.2
20260506225904 5 31 3.2 8.0 0.00 2.21 1.47 91 1011.1
20260506225404 5 22 3.2 8.0 0.03 2.24 1.47 91 1011.0
20260506224904 5 35 1.6 11.3 0.03 2.26 1.47 91 1011.0
20260506223904 5 52 1.6 8.0 0.05 2.29 1.47 91 1010.8
20260506223404 5 15 8.0 14.5 0.05 2.31 1.47 91 1010.8
20260506222906 5 28 3.2 8.0 0.05 2.31 1.47 91 1010.8
20260506222403 5 13 1.6 8.0 0.05 2.34 1.47 91 1010.6
20260506221903 5 33 6.4 16.1 0.05 2.36 1.47 90 1010.5
20260506220903 5 353 4.8 11.3 0.08 2.41 1.47 90 1010.6
20260506220404 5 347 9.7 16.1 0.15 2.46 1.47 89 1010.8
20260506215904 5 338 8.0 16.1 0.18 2.49 1.47 89 1010.6
20260506214904 6 357 9.7 19.3 0.25 2.54 1.45 89 1010.2
20260506212905 7 0 11.3 22.5 0.30 2.67 1.42 88 1009.7
20260506212404 7 352 9.7 20.9 0.30 2.69 1.42 88 1009.5
20260506211904 7 2 11.3 19.3 0.30 2.74 1.42 88 1009.2
20260506211404 8 357 9.7 19.3 0.30 2.77 1.42 87 1009.2
20260506210904 8 326 4.8 12.9 0.28 2.77 1.40 88 1009.1
20260506205904 9 210 0.0 0.0 0.18 2.77 1.30 87 1009.0
20260506205404 9 210 0.0 1.6 0.13 2.79 1.24 87 1008.9
20260506204404 9 203 0.0 0.0 0.03 2.77 1.14 86 1008.9
20260506203904 9 203 1.6 3.2 0.03 2.79 1.14 86 1008.9
20260506203403 9 186 0.0 0.0 0.00 2.77 1.12 86 1008.9
20260506202904 9 186 0.0 3.2 0.00 2.77 1.12 86 1008.9
20260506202404 9 203 1.6 8.0 0.00 2.77 1.12 84 1008.9
20260506201904 9 203 1.6 4.8 0.00 2.79 1.12 85 1008.9
20260506201403 9 162 1.6 4.8 0.00 2.79 1.12 85 1008.9
20260506200904 9 195 1.6 4.8 0.00 2.79 1.12 86 1008.9
20260506200403 9 197 4.8 4.8 0.00 2.79 1.12 84 1008.9
20260506195904 9 209 1.6 4.8 0.00 2.79 1.12 85 1008.9
20260506195404 9 205 1.6 4.8 0.00 2.79 1.12 85 1009.0
20260506194904 9 215 3.2 4.8 0.00 2.79 1.12 85 1009.1
20260506193904 9 203 1.6 3.2 0.00 2.79 1.12 86 1009.1
20260506193403 9 180 1.6 4.8 0.00 2.79 1.12 85 1009.0
20260506192404 9 208 3.2 4.8 0.00 2.79 1.12 84 1009.1
20260506191904 10 200 0.0 4.8 0.00 2.79 1.12 86 1009.0
20260506191404 10 206 1.6 4.8 0.00 2.79 1.12 85 1009.0
20260506190904 10 207 3.2 4.8 0.00 2.79 1.12 85 1009.0
20260506185904 10 205 3.2 4.8 0.00 2.79 1.12 88 1008.9
20260506185404 10 127 0.0 9.7 0.00 2.79 1.12 88 1008.9
20260506184904 10 213 3.2 4.8 0.00 2.79 1.12 92 1008.9
20260506184404 9 215 3.2 11.3 0.00 2.79 1.12 92 1008.8
20260506183903 9 137 1.6 4.8 0.00 2.79 1.12 92 1008.9
20260506183403 8 160 1.6 4.8 0.00 2.79 1.12 93 1009.0
20260506182403 8 189 0.0 1.6 0.00 2.79 1.12 92 1009.2
20260506181903 8 184 0.0 1.6 0.00 2.79 1.12 92 1009.2
20260506181403 8 129 0.0 1.6 0.00 2.79 1.12 92 1009.2
20260506180903 8 130 0.0 1.6 0.00 2.79 1.12 92 1009.3
20260506180403 8 129 0.0 1.6 0.00 2.79 1.12 92 1009.2
20260506175903 7 125 0.0 1.6 0.00 2.79 1.12 92 1009.0
20260506175403 7 85 1.6 3.2 0.00 2.79 1.12 92 1009.1
20260506174903 8 111 0.0 1.6 0.00 2.79 1.12 92 1009.2
20260506174403 7 111 0.0 3.2 0.00 2.79 1.12 92 1009.2
20260506173904 7 180 0.0 0.0 0.00 2.79 1.12 92 1009.3
20260506171903 7 89 0.0 0.0 0.00 2.79 1.12 93 1009.2
20260506171403 7 89 0.0 1.6 0.00 2.79 1.12 93 1009.2
20260506170904 7 89 0.0 0.0 0.00 2.79 1.12 92 1009.1
20260506170404 7 89 0.0 1.6 0.00 2.79 1.12 92 1009.0
20260506165904 7 89 0.0 1.6 0.00 2.79 1.12 92 1009.1
20260506165404 7 89 0.0 1.6 0.00 2.79 1.12 93 1009.0
20260506164903 7 89 0.0 0.0 0.00 2.79 1.12 93 1009.0
20260506164403 7 89 0.0 3.2 0.00 2.79 1.12 93 1008.9
20260506163903 7 85 0.0 1.6 0.00 2.79 1.12 92 1008.9
20260506163403 7 84 0.0 1.6 0.00 2.79 1.12 93 1008.9
20260506162903 7 85 0.0 1.6 0.00 2.79 1.12 93 1009.0
20260506162403 7 84 0.0 1.6 0.00 2.79 1.12 93 1009.1
20260506161904 7 85 0.0 1.6 0.00 2.79 1.12 93 1009.1
20260506161404 7 89 0.0 0.0 0.00 2.79 1.12 93 1009.0
20260506160404 7 92 0.0 1.6 0.00 2.79 1.12 93 1008.9
20260506155904 7 73 0.0 3.2 0.00 2.79 1.12 93 1008.9
20260506155404 7 34 0.0 1.6 0.00 2.79 1.12 93 1008.9
20260506154903 7 94 0.0 0.0 0.00 2.79 1.12 93 1008.9
20260506154403 7 94 0.0 1.6 0.00 2.79 1.12 93 1009.0
20260506153904 7 82 1.6 4.8 0.00 2.79 1.12 93 1009.0
20260506153404 7 102 1.6 3.2 0.00 2.79 1.12 93 1008.8
20260506152904 7 104 0.0 3.2 0.03 2.79 1.12 93 1008.6
20260506152404 7 104 1.6 3.2 0.03 2.79 1.12 93 1008.6
20260506151903 7 98 1.6 3.2 0.03 2.79 1.12 93 1008.5
20260506151404 7 93 0.0 1.6 0.03 2.79 1.12 93 1008.7
20260506150903 7 93 0.0 1.6 0.03 2.79 1.12 93 1008.7
20260506145904 7 89 1.6 8.0 0.05 2.79 1.12 93 1008.6
20260506145404 7 105 1.6 4.8 0.05 2.79 1.12 93 1008.6
20260506144904 7 93 1.6 4.8 0.05 2.79 1.12 93 1008.5
20260506143903 7 104 0.0 1.6 0.08 2.79 1.12 93 1008.5
20260506143403 7 104 0.0 0.0 0.08 2.79 1.12 93 1008.6
20260506142903 6 104 0.0 3.2 0.05 2.77 1.09 93 1008.6
20260506142404 7 88 1.6 3.2 0.05 2.77 1.09 93 1008.7
20260506141903 7 143 0.0 1.6 0.05 2.77 1.09 93 1008.6
20260506141403 7 143 0.0 1.6 0.05 2.77 1.09 93 1008.6
20260506140903 7 91 0.0 1.6 0.05 2.77 1.09 93 1008.5
20260506140403 6 90 1.6 4.8 0.03 2.74 1.07 93 1008.5
20260506135903 6 111 0.0 1.6 0.03 2.74 1.07 93 1008.4
20260506135404 6 98 0.0 1.6 0.03 2.74 1.07 93 1008.4
20260506134903 6 99 0.0 3.2 0.03 2.74 1.07 93 1008.5
20260506134404 6 85 1.6 4.8 0.00 2.72 1.04 93 1008.4
20260506133903 6 108 0.0 1.6 0.03 2.72 1.04 93 1008.3
20260506132404 6 119 0.0 1.6 0.03 2.72 1.04 93 1008.2
20260506131904 6 124 0.0 1.6 0.05 2.72 1.04 93 1008.1
20260506131404 6 123 0.0 1.6 0.05 2.72 1.04 93 1008.1
20260506130903 6 127 0.0 1.6 0.05 2.72 1.04 93 1008.1
20260506130403 6 142 0.0 1.6 0.05 2.72 1.04 93 1008.1
20260506125403 6 158 0.0 0.0 0.08 2.72 1.04 93 1008.0
20260506124904 6 161 0.0 0.0 0.08 2.72 1.04 93 1007.9
20260506123404 6 150 0.0 1.6 0.05 2.69 1.02 93 1007.8
20260506122904 6 151 0.0 1.6 0.08 2.69 1.02 93 1007.9
20260506122404 6 149 0.0 1.6 0.08 2.69 1.02 93 1007.7
20260506121404 6 135 0.0 1.6 0.05 2.67 0.99 93 1007.7